Location: ?ngal
(27.6623°N, 85.5212°E)
Time: 21:02:22
(UTC+00:00)

Daily predictions for brighter satellites

Satellite Brightness Start Highest point End
(mag) Time Altitude Azimuth Time Altitude Azimuth Time Altitude Azimuth
Cosmos 2315 Rocket 4.4 13:32:39 10° N 13:38:43 47° E 13:44:48 10° SSE
CZ-2C R/B 3.3 13:33:24 10° SSE 13:39:09 73° ENE 13:44:43 10° N
USA 186 2.8 13:37:51 10° SE 13:40:50 31° ENE 13:43:49 10° NNE
ATLAS CENTAUR R/B 3.6 13:42:04 10° NE 13:43:12 12° ENE 13:44:35 10° E
Cosmos 1606 Rocket 3.6 13:40:41 10° N 13:45:10 80° E 13:49:37 10° S
Cosmos 2098 Rocket 4.1 13:39:22 10° S 13:45:49 73° W 13:51:00 10° N
ARGOS 3.4 13:40:41 10° SSE 13:45:58 56° ENE 13:51:16 10° N
Cosmos 1898 Rocket 4.2 13:42:47 10° NNW 13:47:52 55° WSW 13:52:53 10° S
SL-16 R/B 2.4 13:43:31 10° SSW 13:49:10 81° WNW 13:54:51 10° NNE
FREGAT/IRIS 3.4 13:47:01 10° SE 13:49:20 28° ENE 13:51:40 10° NNE
Cosmos 1809 Rocket 4.5 13:43:46 10° S 13:49:55 74° E 13:56:03 10° N
Cosmos 1626 2.7 13:49:27 10° SSW 13:53:04 60° W 13:56:44 10° N
FALCON 9 R/B 2.5 13:50:48 10° WNW 13:53:47 25° N 13:55:45 10° ENE
CZ-2C R/B 2.7 13:50:38 10° NNE 13:55:51 55° E 14:00:57 10° S
Cosmos 2285 Rocket 4.2 13:51:20 10° N 13:57:31 57° ENE 14:03:40 10° SSE
NOSS 3-1 (C) 4.3 13:49:41 10° NNW 13:57:53 89° ENE 14:06:52 10° SSE
Ariane Rocket 3.1 13:53:29 10° SSE 13:58:31 65° ENE 14:03:33 10° N
ATLAS 5 CENTAUR R/B 1.3 13:55:03 10° SSW 13:58:56 58° ESE 14:03:01 10° NE
GEOS 3 Rocket 4.3 13:57:53 10° NE 14:02:37 32° ESE 14:07:19 10° S
Cosmos 1356 Rocket 3.5 14:03:33 10° N 14:07:43 56° E 14:11:46 10° SSE
DMSP B5D2-2 4.0 14:03:26 10° NNE 14:08:39 76° ESE 14:13:49 10° S
OAO 2 Rocket 4.3 14:04:35 10° W 14:09:42 51° NNW 14:14:53 10° ENE
H-2A ROCKET BODY 2.2 14:07:52 10° W 14:11:08 83° N 14:23:19 10° E
Cosmos 1602 Rocket 3.9 14:08:10 10° SSE 14:12:19 44° E 14:16:32 10° NNE
Hubble Space Telescope 2.3 14:09:53 10° SSW 14:12:37 17° SSE 14:13:26 16° SE
USA 229 DEB 4.0 14:05:40 10° NNW 14:13:10 83° WSW 14:20:53 10° SSE
USA 229 4.0 14:05:45 10° NNW 14:13:15 83° WSW 14:21:00 10° SSE
Cosmos 1726 Rocket 4.4 14:11:47 10° NNW 14:16:07 53° W 14:20:27 10° S
H-2A R/B 3.0 14:12:02 10° S 14:17:17 52° W 14:22:36 10° NNW
Milstar 3 Cent rocket 3.6 14:13:57 10° WSW 14:17:32 21° SSW 14:21:12 12° SSE
Cosmos 1125 Rocket 4.5 14:13:50 10° N 14:18:27 30° ENE 14:21:22 18° ESE
SL-08 R/B 4.5 14:14:02 10° S 14:20:14 65° E 14:26:23 10° NNE
NOSS 3-3 (A) 4.4 14:16:37 10° S 14:21:30 32° ESE 14:26:41 10° NE
BREEZE-M DEB (TANK) 4.4 14:09:43 10° NW 14:21:36 54° NNE 14:24:23 19° ESE
NOSS 3-3 (C) 4.4 14:16:44 10° S 14:21:37 31° ESE 14:26:47 10° NE
Cosmos 2227 4.2 14:17:34 10° NNW 14:23:21 87° ENE 14:28:22 14° SSE
NOSS 3-1 (A) 4.3 14:15:22 10° NNW 14:23:35 85° ENE 14:31:22 15° SSE
SPOT 3 Rocket 3.9 14:21:40 17° SE 14:25:23 47° ENE 14:30:22 10° N
GPS 2-15 Rocket1 4.4 14:25:57 10° WSW 14:30:07 27° S 14:32:04 21° SSE
Cosmos 2298 Rocket 4.0 14:25:04 10° NNW 14:30:24 79° ENE 14:34:25 18° SSE
CZ-2C R/B 4.1 14:27:39 10° N 14:32:24 72° WNW 14:37:08 10° SSW
Cosmos 2322 Rocket 3.9 14:30:52 10° SW 14:35:58 36° WNW 14:41:05 10° N
Meteor 1-21 Rocket 4.3 14:31:20 10° S 14:37:10 74° E 14:43:04 10° NNE
Resurs 01 Rocket 2.1 14:38:54 29° ESE 14:40:33 41° ENE 14:44:41 10° N
Iridium 82 4.4 14:43:57 32° S 14:45:27 77° E 14:49:03 10° N
SL-24 R/B - RUBIN 2 4.4 14:42:19 10° SSW 14:47:54 81° WNW 14:54:14 10° NNE
Cosmos 783 Rocket 4.4 14:43:31 10° SSW 14:48:46 85° ESE 14:54:01 10° NNE
Cosmos 1745 Rocket 3.9 14:46:37 10° S 14:52:45 88° E 14:59:00 10° N
SL-08 ROCKET BODY 4.4 14:51:43 10° S 14:57:37 83° W 15:03:38 10° N
Cosmos 1758 Rocket 3.5 14:55:55 33° S 14:57:53 75° E 15:02:23 10° N
COSMOS 2428 3.0 14:56:14 33° SSE 14:58:01 43° ESE 15:03:21 10° NE
Cosmos 2322 3.6 14:55:16 10° SSW 15:00:59 88° ESE 15:06:43 10° NNE
MetOp-B 4.5 15:02:47 39° ESE 15:04:10 48° ENE 15:09:18 10° N
USA 215 3.2 15:00:05 10° NE 15:06:39 88° NW 15:13:10 10° SW
BREEZE-M DEB (TANK) 3.8 15:01:52 10° NW 15:07:41 41° WSW 15:09:09 30° S
Cosmos 1328 3.6 15:07:49 70° SSE 15:08:11 78° E 15:12:08 10° N
DELTA 2 R/B (1) 4.0 15:03:09 10° WSW 15:08:40 61° NNW 15:14:12 10° NE
Cosmos 2237 Rocket 4.2 15:12:37 12° ENE 15:12:37 12° ENE 15:13:23 10° ENE
Cosmos 2219 Rocket 2.0 15:07:53 29° S 15:10:45 67° ESE 15:16:18 10° NNE
Cosmos 773 Rocket 3.9 15:09:02 20° SSW 15:12:46 89° WNW 15:18:05 10° NNE
Cosmos 2333 4.3 15:07:17 10° SSW 15:12:52 74° WNW 15:18:31 10° NNE
Cosmos 2360 Rocket 3.9 15:08:17 10° SW 15:13:18 33° WNW 15:18:22 10° N
Cosmos 2263 Rocket 3.6 15:10:48 10° NW 15:15:41 32° WSW 15:19:16 16° SSW
Cosmos 1455 2.2 15:12:21 10° N 15:15:54 72° NE 15:15:54 72° NE
ERS-1 Rocket 4.4 15:16:49 23° ENE 15:16:49 23° ENE 15:20:26 10° NNE
OAO 3 Rocket 4.2 15:13:02 10° WNW 15:17:43 43° NNE 15:19:31 30° ENE
Cosmos 1703 3.7 15:19:00 49° SW 15:19:42 58° W 15:23:31 10° N
Cosmos 1953 Rocket 3.5 15:21:32 65° ENE 15:21:32 65° ENE 15:25:28 10° N
Atlas Centaur 2 2.6 15:17:43 10° W 15:23:27 70° N 15:26:58 31° E
GMS 1 Rocket 4.4 15:19:44 10° W 15:23:23 68° NNW 15:23:23 68° NNW
Cosmos 2333 Rocket 2.2 15:19:26 18° SSW 15:23:42 83° WNW 15:29:25 10° NNE
SPOT 5 4.4 15:25:30 24° ENE 15:25:30 24° ENE 15:28:48 10° NNE
Landsat 7 3.9 15:29:29 60° ENE 15:29:29 60° ENE 15:34:01 10° N
Cosmos 2344 4.3 15:35:20 32° E 15:35:20 32° E 15:40:14 10° NE
Cosmos 1461 4.1 15:30:02 10° NW 15:34:25 38° WSW 15:35:01 37° SW
Cosmos 1709 Rocket 4.1 15:34:50 34° SSW 15:37:42 73° W 15:44:01 10° N
Spot 2 Rocket 3.3 15:38:51 84° ESE 15:38:58 85° ENE 15:44:04 10° N
Alouette 2 Rocket 4.1 15:39:08 10° N 15:43:40 75° E 15:43:43 75° E
USA 81 4.0 15:46:53 75° NE 15:46:53 75° NE 15:51:47 10° N
IGS 5A 4.4 15:53:04 46° NW 15:53:04 46° NW 15:56:10 10° NNW
Cosmos 2184 Rocket 4.4 15:54:37 46° ENE 15:54:37 46° ENE 15:59:42 10° NNE
Cosmos 2278 Rocket 4.3 15:50:53 10° NNE 15:53:19 14° NE 15:53:19 14° NE
Cosmos 1844 Rocket 2.6 15:51:18 10° NNW 15:56:37 81° NW 15:56:37 81° NW
Delta 7925 Rocket 4.2 15:48:42 10° W 15:57:22 71° SSW 15:57:53 69° SSE
SPOT 1/Viking Rocket 3.6 15:58:50 72° NW 15:58:50 72° NW 16:03:30 10° NNW
Terra 3.2 16:18:19 33° N 16:18:19 33° N 16:21:02 10° N
Resurs 01 Rocket 4.3 16:16:29 11° WSW 16:17:06 12° W 16:18:36 10° WNW
VEP-3 3.3 16:12:12 10° W 16:17:48 65° S 16:34:43 10° ESE
ATLAS 2AS CENTAUR R/B 4.4 16:34:28 10° N 16:39:39 20° NE 16:40:26 20° ENE
Cosmos 2074 Rocket 4.4 16:40:32 56° WNW 16:40:32 56° WNW 16:46:04 10° N
Cosmos 2237 Rocket 3.4 16:54:23 39° NW 16:54:23 39° NW 16:58:43 10° N
Atlas Centaur 2 3.9 17:06:26 10° WNW 17:09:32 32° W 17:09:32 32° W
USA 267 4.5 17:14:40 32° NE 17:14:57 32° NE 17:20:36 10° NNW
SL-16 R/B 4.0 17:41:03 27° N 17:41:03 27° N 17:43:44 10° N
Cosmos 2278 Rocket 4.0 17:32:42 10° NNW 17:35:09 26° NW 17:35:09 26° NW
Cosmos 2369 Rocket 4.3 18:25:36 10° N 18:28:03 21° NNE 18:28:03 21° NNE
ATLAS 2AS CENTAUR R/B 4.0 18:24:05 10° NW 18:27:51 33° NW 18:27:51 33° NW
CZ-4C R/B 4.4 18:50:41 10° N 18:57:22 31° NE 19:00:34 24° E
Cosmos 1943 Rocket 4.3 19:21:00 10° NNW 19:22:30 19° NNW 19:22:30 19° NNW
SeaSat 1 4.4 19:46:22 10° N 19:48:36 25° N 19:48:36 25° N
Resurs 1-4 Rocket 3.4 19:58:31 10° N 20:01:39 36° N 20:01:39 36° N
ADEOS II 3.1 20:08:34 10° NNE 20:12:27 41° ENE 20:12:27 41° ENE
Lacrosse 5 3.5 20:17:59 28° NNW 20:17:59 28° NNW 20:21:06 10° NNE
IRS-1D 4.5 20:16:59 10° NNE 20:20:18 43° NNE 20:20:18 43° NNE
Cosmos 1459 Rocket 4.0 20:25:02 70° NNE 20:25:02 70° NNE 20:30:21 10° N
Cosmos 2061 Rocket 4.2 20:29:45 61° ESE 20:30:10 63° E 20:36:27 10° NNE
DELTA 2 R/B (1) 4.2 20:29:34 46° NNW 20:30:41 54° NNE 20:36:09 10° ESE
SL-16 R/B 2.9 20:32:41 54° NW 20:32:41 54° NW 20:37:37 10° NNW
Mugunghwa Rocket 4.4 20:34:49 67° WSW 20:36:07 81° S 20:44:51 10° E
CZ-2D R/B 3.6 20:31:31 10° N 20:34:42 28° NW 20:34:42 28° NW
Cosmos 1725 Rocket 4.3 20:36:12 52° ESE 20:36:58 56° E 20:43:00 10° NNE
Okean 1-7 4.3 20:36:13 10° N 20:39:15 39° NNE 20:39:15 39° NNE
SEDSat Delta rocket 4.2 20:39:22 47° NW 20:41:16 66° N 20:47:41 10° E
SL-8 R/B 4.5 20:44:08 49° NNE 20:44:08 49° NNE 20:47:44 10° NE
ATLAS 2A CENTAUR R/B 4.1 20:21:53 10° WSW 20:45:07 76° S 20:49:53 10° E
Meteor 1-18 Rocket 4.2 20:39:55 10° N 20:45:40 84° ENE 20:45:40 84° ENE
CZ-4C R/B 3.2 20:38:32 10° NW 20:45:37 53° W 20:45:37 53° W
Cosmos 407 Rocket 3.5 20:53:46 80° NE 20:53:46 80° NE 20:58:51 10° NNE
Cosmos 1932 4.5 20:55:53 65° W 20:56:24 68° WNW 21:02:56 10° NNE
CZ-3A R/B 3.9 20:59:13 13° ESE 20:59:13 13° ESE 20:59:59 10° ESE
Cosmos 1437 Rocket 4.1 20:56:16 10° NNE 21:00:01 37° E 21:00:05 37° E
GOES 2 Rocket 3.8 20:58:59 57° W 21:00:27 84° N 21:05:59 10° E
COSMOS 2406 3.0 21:00:45 80° SW 21:01:03 85° WNW 21:06:51 10° NNE
IDEFIX/ARIANE 42P 3.4 20:57:32 10° NNE 21:02:28 44° E 21:03:47 36° SE
CZ-2C R/B 4.4 21:00:13 10° NE 21:03:45 29° E 21:04:09 28° ESE
Spot 4 Rocket 4.3 21:00:05 10° NNE 21:05:11 61° ESE 21:06:00 53° SE
ARIANE 5 R/B 2.3 21:03:28 10° N 21:08:34 83° WNW 21:08:44 81° WSW
OAO 3 Copernicus 4.2 21:10:51 78° SE 21:10:51 78° SE 21:15:34 10° ESE
Cosmos 1140 Rocket 3.3 21:10:23 81° SW 21:10:39 86° WNW 21:15:52 10° NNE
Meteor 1-19 Rocket 4.1 21:06:12 10° NNW 21:11:41 62° W 21:11:41 62° W
IRS-1C 4.3 21:07:35 10° N 21:12:46 54° WNW 21:12:49 54° WNW
SWIFT 4.4 21:16:40 18° SE 21:16:40 18° SE 21:18:09 10° ESE
Cosmos 2082 Rocket 3.1 21:12:19 30° SSE 21:14:30 43° ESE 21:19:52 10° NE
Cosmos 2016 Rocket 4.1 21:14:28 50° W 21:14:51 50° W 21:20:48 10° N
Meteor 1-11 Rocket 3.6 21:30:20 48° SSW 21:31:50 71° W 21:37:21 10° N
Cosmos 1833 Rocket 2.7 21:32:46 48° SW 21:34:12 66° WNW 21:39:46 10° NNE
ASTRO E2 3.4 21:36:10 37° NW 21:37:15 48° N 21:41:06 10° ENE
Aureole 1 Rocket 3.4 21:42:57 38° WNW 21:42:57 38° WNW 21:46:56 10° N
Cosmos 1536 3.0 21:44:15 51° W 21:44:25 51° W 21:48:23 10° N
CSL-04 DEB 4.4 21:44:30 26° SSE 21:46:51 88° W 21:51:04 10° NNW
SL-08 R/B 3.6 21:49:00 40° WSW 21:49:31 42° W 21:54:00 10° NNW
NATO 3D Rocket 4.3 21:46:45 31° WSW 21:49:52 51° S 21:55:21 10° ESE
Cosmos 1908 Rocket 4.4 21:47:25 16° SSE 21:50:45 50° E 21:55:05 10° NNE
ADEOS II 3.9 21:50:00 10° NW 21:52:51 15° WNW 21:53:23 15° WNW
Okean 3 3.7 21:50:40 10° NNW 21:54:39 45° W 21:55:20 41° WSW
Cosmos 1733 Rocket 3.5 21:56:32 36° WSW 21:57:16 39° W 22:01:19 10° NNW
Meteor 1-28 Rocket 4.1 22:00:52 29° W 22:00:52 29° W 22:03:40 10° NW
Delta 128 4.0 22:00:02 17° W 22:04:42 85° S 22:09:50 10° E
Meteor 2-11 Rocket 4.4 22:01:37 21° SSW 22:05:48 65° W 22:11:51 10° N
Cosmos 1544 4.5 22:02:54 10° SSE 22:06:13 36° E 22:09:32 10° NNE
PAYLOAD A 4.3 22:00:54 10° NNE 22:06:14 75° ESE 22:11:26 11° S
GPS 2-14 Rocket1 4.0 22:07:12 24° SSW 22:08:03 26° S 22:11:31 10° ESE
CZ-2C R/B 2.6 22:05:43 10° NNE 22:10:29 67° E 22:15:07 10° S
Cosmos 2221 Rocket 4.2 22:06:54 10° NNW 22:10:54 35° W 22:12:30 26° SW
Cosmos 1513 Rocket 4.5 22:07:47 10° S 22:13:51 86° E 22:20:02 10° N
Cosmos 1656 3.5 22:11:12 10° NNW 22:16:35 70° WSW 22:22:00 10° S
DELTA 2 R/B (1) 4.0 22:11:51 10° WNW 22:17:01 38° SW 22:22:10 10° SSE
ATLAS 2A CENTAUR R/B 1.9 22:16:07 23° S 22:17:08 31° SSE 22:22:10 10° E
Cosmos 1743 2.8 22:16:47 22° SSW 22:19:00 55° W 22:22:45 10° N
Cosmos 2369 4.5 22:14:01 10° N 22:19:38 56° ENE 22:25:14 10° SSE
Cosmos 220 Rocket 4.2 22:18:19 10° NNW 22:22:20 43° WSW 22:26:19 10° S
MSX 4.4 22:20:57 10° N 22:26:13 39° WNW 22:30:27 15° SW
deb Chang Zheng 4 3.5 22:23:21 10° N 22:27:34 66° WNW 22:31:32 12° SSW
SEDSat Delta rocket 3.8 22:21:28 10° WNW 22:28:08 75° SSW 22:34:08 10° ESE
ATLAS 2A CENTAUR R/B 1.8 22:25:29 16° WSW 22:29:36 59° S 22:31:57 10° E
Meteor 1-23 Rocket 4.3 22:25:20 10° NNW 22:30:59 63° W 22:36:40 10° S
Cosmos 1484 Rocket 4.4 22:28:35 10° NNE 22:32:08 34° E 22:35:37 10° SSE
H-2A R/B 2.8 22:28:09 10° SSW 22:32:13 34° W 22:36:16 10° NW
ALOS 3.8 22:30:29 10° NNE 22:34:45 35° E 22:39:00 10° SSE
NOSS 3-2 (A) 3.9 22:30:36 10° S 22:35:50 52° ESE 22:41:32 10° NE
Cosmos 1850 Rocket 4.2 22:32:45 12° SSW 22:37:35 55° WNW 22:42:49 10° N
ERS-2 3.3 22:35:36 15° SW 22:37:35 23° W 22:40:31 10° NW
Cosmos 1980 Rocket 3.5 22:32:51 10° N 22:38:17 44° ENE 22:43:39 10° SE
CZ-4C R/B 4.3 22:38:11 15° SW 22:39:46 20° W 22:42:19 10° NW
IDEFIX/ARIANE 42P 4.3 22:38:34 10° NNW 22:41:37 16° WNW 22:44:35 10° WSW
CZ-3B R/B 2.6 22:35:26 13° WSW 22:42:20 44° S 22:45:20 10° E
Cosmos 2278 4.4 22:37:33 10° N 22:43:11 59° ENE 22:48:47 10° SSE
ADEOS 3.7 22:45:08 10° N 22:50:16 60° WNW 22:55:23 10° SSW
SL-27 R/B 2.9 22:47:42 10° S 22:51:15 64° ESE 22:54:46 10° NNE
GOES 2 Rocket 3.4 22:49:07 10° W 22:55:06 77° SSW 22:59:46 10° ESE
SWIFT 3.5 22:52:21 10° WSW 22:56:00 28° S 22:59:41 10° SE
CZ-4B R/B 4.0 22:52:34 10° NNE 22:56:48 85° ESE 23:00:47 10° S
Cosmos 1842 3.7 22:54:27 10° N 22:58:22 67° E 23:02:17 10° SSE
Intercosmos 25 Rocket 4.1 22:54:30 10° N 22:58:34 84° E 23:05:05 10° S
Cosmos 2082 Rocket 3.8 22:54:39 10° WSW 22:58:40 20° WNW 23:02:43 10° NNW
Cosmos 1378 Rocket 4.5 22:57:20 10° NNW 23:01:07 29° W 23:04:54 10° SSW
Cosmos 1867 4.0 22:58:36 10° SSW 23:03:57 68° ESE 23:09:21 10° NNE
GPS 2-04 Rocket1 4.4 23:01:09 10° NW 23:04:40 31° NNE 23:08:19 10° ENE
Sich 1 Rocket 3.7 23:01:28 10° SSW 23:05:59 60° W 23:10:29 10° N
Cosmos 2360 4.2 23:01:58 10° NNW 23:07:39 66° WSW 23:13:17 10° S
